| time (UTC) | temp C | wind direction | speed KPH | gust KPH | rain 1hr cm | rain 24hr cm | rain mn cm | humidity % | barometer mb |
| 20260508054545 | 15 | 243 | 1.6 | 11.3 | 0.00 | 0.00 | 0.00 | 77 | 1023.5 |
| 20260508053101 | 15 | 214 | 9.7 | 17.7 | 0.00 | 0.00 | 0.00 | 73 | 1023.4 |
| 20260508051541 | 15 | 224 | 6.4 | 20.9 | 0.00 | 0.00 | 0.00 | 69 | 1023.2 |
| 20260508050041 | 16 | 250 | 4.8 | 14.5 | 0.00 | 0.00 | 0.00 | 69 | 1023.2 |
| 20260508044539 | 16 | 216 | 8.0 | 20.9 | 0.00 | 0.00 | 0.00 | 67 | 1023.0 |
| 20260508043038 | 16 | 263 | 9.7 | 20.9 | 0.00 | 0.00 | 0.00 | 67 | 1023.1 |
| 20260508041603 | 15 | 229 | 9.7 | 25.7 | 0.00 | 0.00 | 0.00 | 70 | 1023.1 |
| 20260508040043 | 15 | 268 | 14.5 | 27.4 | 0.00 | 0.00 | 0.00 | 72 | 1023.2 |
| 20260508034537 | 15 | 234 | 8.0 | 22.5 | 0.00 | 0.00 | 0.00 | 72 | 1023.0 |
| 20260508033035 | 16 | 254 | 9.7 | 22.5 | 0.00 | 0.00 | 0.00 | 71 | 1022.9 |
| 20260508031537 | 16 | 214 | 8.0 | 24.1 | 0.00 | 0.00 | 0.00 | 71 | 1022.8 |
| 20260508030036 | 15 | 233 | 11.3 | 22.5 | 0.00 | 0.00 | 0.00 | 73 | 1022.7 |
| 20260508024534 | 15 | 248 | 8.0 | 25.7 | 0.00 | 0.00 | 0.00 | 73 | 1023.1 |
| 20260508023034 | 15 | 233 | 8.0 | 30.6 | 0.00 | 0.00 | 0.00 | 72 | 1023.0 |
| 20260508021534 | 15 | 207 | 9.7 | 24.1 | 0.00 | 0.00 | 0.00 | 74 | 1023.0 |
| 20260508020039 | 15 | 227 | 9.7 | 19.3 | 0.00 | 0.00 | 0.00 | 75 | 1023.2 |
| 20260508014528 | 15 | 244 | 9.7 | 29.0 | 0.00 | 0.00 | 0.00 | 76 | 1023.4 |
| 20260508013025 | 15 | 222 | 8.0 | 16.1 | 0.00 | 0.00 | 0.00 | 82 | 1023.2 |
| 20260508011524 | 14 | 227 | 0.0 | 4.8 | 0.00 | 0.00 | 0.00 | 86 | 1023.3 |
| 20260508010022 | 15 | 229 | 0.0 | 1.6 | 0.00 | 0.00 | 0.00 | 86 | 1023.2 |
| 20260508004521 | 14 | 275 | 0.0 | 1.6 | 0.00 | 0.00 | 0.00 | 87 | 1023.0 |
| 20260508003019 | 15 | 267 | 0.0 | 0.0 | 0.00 | 0.00 | 0.00 | 87 | 1022.8 |
| 20260508001516 | 14 | 244 | 0.0 | 0.0 | 0.00 | 0.00 | 0.00 | 90 | 1022.6 |
| 20260508000015 | 13 | 289 | 0.0 | 0.0 | 0.00 | 0.00 | 0.00 | 91 | 1022.6 |
| 20260507234514 | 13 | 268 | 0.0 | 0.0 | 0.00 | 0.00 | 0.00 | 92 | 1022.4 |
| 20260507233028 | 13 | 271 | 0.0 | 0.0 | 0.00 | 0.00 | 0.00 | 92 | 1022.6 |
| 20260507231511 | 13 | 300 | 0.0 | 0.0 | 0.00 | 0.00 | 0.00 | 92 | 1022.5 |
| 20260507230010 | 13 | 262 | 0.0 | 0.0 | 0.00 | 0.00 | 0.00 | 92 | 1022.4 |
| 20260507224509 | 13 | 273 | 0.0 | 0.0 | 0.00 | 0.00 | 0.00 | 93 | 1022.2 |
| 20260507223007 | 12 | 280 | 0.0 | 0.0 | 0.00 | 0.00 | 0.00 | 93 | 1022.0 |
| 20260507221505 | 12 | 232 | 0.0 | 0.0 | 0.00 | 0.00 | 0.00 | 92 | 1021.9 |
| 20260507220003 | 12 | 232 | 0.0 | 0.0 | 0.00 | 0.00 | 0.00 | 93 | 1021.8 |
| 20260507214500 | 12 | 249 | 0.0 | 0.0 | 0.00 | 0.00 | 0.00 | 93 | 1021.5 |
| 20260507213106 | 12 | 243 | 0.0 | 0.0 | 0.00 | 0.00 | 0.00 | 93 | 1021.2 |
| 20260507211559 | 12 | 220 | 0.0 | 0.0 | 0.00 | 0.00 | 0.00 | 93 | 1021.2 |
| 20260507210104 | 12 | 229 | 0.0 | 0.0 | 0.00 | 0.00 | 0.00 | 93 | 1020.9 |
| 20260507204558 | 12 | 269 | 0.0 | 0.0 | 0.00 | 0.00 | 0.00 | 93 | 1020.8 |
| 20260507203058 | 12 | 221 | 0.0 | 0.0 | 0.00 | 0.00 | 0.00 | 93 | 1020.5 |
| 20260507201557 | 12 | 246 | 0.0 | 0.0 | 0.00 | 0.00 | 0.00 | 93 | 1020.7 |
| 20260507200057 | 12 | 245 | 0.0 | 0.0 | 0.00 | 0.00 | 0.00 | 93 | 1020.9 |
| 20260507194618 | 12 | 225 | 0.0 | 1.6 | 0.00 | 0.00 | 0.00 | 92 | 1020.6 |
| 20260507193055 | 12 | 236 | 0.0 | 1.6 | 0.00 | 0.00 | 0.00 | 92 | 1020.3 |
| 20260507191553 | 12 | 248 | 0.0 | 0.0 | 0.00 | 0.00 | 0.00 | 92 | 1020.3 |
| 20260507190054 | 12 | 257 | 0.0 | 0.0 | 0.00 | 0.00 | 0.00 | 92 | 1020.1 |
| 20260507184552 | 12 | 238 | 0.0 | 1.6 | 0.00 | 0.00 | 0.00 | 92 | 1020.0 |
| 20260507183051 | 12 | 304 | 0.0 | 1.6 | 0.00 | 0.00 | 0.00 | 91 | 1019.8 |
| 20260507181556 | 12 | 257 | 0.0 | 0.0 | 0.00 | 0.00 | 0.00 | 91 | 1019.7 |
| 20260507180051 | 12 | 277 | 0.0 | 0.0 | 0.00 | 0.00 | 0.00 | 90 | 1019.6 |
| 20260507174557 | 12 | 275 | 0.0 | 0.0 | 0.00 | 0.00 | 0.00 | 90 | 1019.5 |
| 20260507173119 | 12 | 286 | 0.0 | 0.0 | 0.00 | 0.00 | 0.00 | 89 | 1019.5 |
| 20260507171554 | 12 | 250 | 0.0 | 0.0 | 0.00 | 0.00 | 0.00 | 89 | 1019.2 |
| 20260507170108 | 12 | 261 | 0.0 | 0.0 | 0.00 | 0.00 | 0.00 | 89 | 1019.2 |
| 20260507164555 | 12 | 257 | 0.0 | 0.0 | 0.00 | 0.00 | 0.00 | 89 | 1019.3 |
| 20260507163048 | 12 | 296 | 0.0 | 0.0 | 0.00 | 0.00 | 0.00 | 89 | 1019.4 |
| 20260507161601 | 12 | 265 | 0.0 | 0.0 | 0.00 | 0.00 | 0.00 | 89 | 1019.5 |
| 20260507160045 | 12 | 267 | 0.0 | 0.0 | 0.00 | 0.00 | 0.00 | 89 | 1019.5 |
| 20260507154544 | 12 | 275 | 0.0 | 0.0 | 0.00 | 0.00 | 0.00 | 90 | 1019.5 |
| 20260507153045 | 12 | 255 | 0.0 | 0.0 | 0.00 | 0.00 | 0.00 | 90 | 1019.5 |
| 20260507151541 | 12 | 296 | 0.0 | 0.0 | 0.00 | 0.00 | 0.00 | 90 | 1019.6 |
| 20260507150042 | 12 | 294 | 0.0 | 0.0 | 0.00 | 0.00 | 0.00 | 90 | 1019.8 |
| 20260507144544 | 12 | 301 | 0.0 | 0.0 | 0.00 | 0.00 | 0.00 | 90 | 1020.0 |
| 20260507143040 | 12 | 319 | 0.0 | 0.0 | 0.00 | 0.00 | 0.00 | 90 | 1020.0 |
| 20260507141535 | 11 | 275 | 0.0 | 0.0 | 0.00 | 0.00 | 0.00 | 91 | 1020.1 |
| 20260507140037 | 11 | 261 | 0.0 | 0.0 | 0.00 | 0.00 | 0.00 | 91 | 1020.2 |
| 20260507134534 | 11 | 297 | 0.0 | 0.0 | 0.00 | 0.00 | 0.00 | 91 | 1020.4 |
| 20260507133034 | 11 | 280 | 0.0 | 1.6 | 0.00 | 0.00 | 0.00 | 90 | 1020.6 |
| 20260507131536 | 11 | 261 | 0.0 | 1.6 | 0.00 | 0.00 | 0.00 | 90 | 1020.7 |
| 20260507130032 | 11 | 304 | 0.0 | 1.6 | 0.00 | 0.00 | 0.00 | 89 | 1021.0 |
| 20260507124532 | 11 | 267 | 0.0 | 3.2 | 0.00 | 0.00 | 0.00 | 89 | 1021.2 |
| 20260507123039 | 11 | 292 | 0.0 | 3.2 | 0.00 | 0.00 | 0.00 | 88 | 1021.5 |
| 20260507121532 | 11 | 251 | 3.2 | 8.0 | 0.00 | 0.00 | 0.00 | 88 | 1021.6 |
| 20260507120041 | 11 | 270 | 4.8 | 25.7 | 0.00 | 0.00 | 0.00 | 89 | 1021.6 |
| 20260507114530 | 11 | 294 | 8.0 | 20.9 | 0.00 | 0.00 | 0.00 | 90 | 1021.7 |
| 20260507113040 | 11 | 272 | 4.8 | 16.1 | 0.00 | 0.00 | 0.00 | 90 | 1021.6 |
| 20260507111531 | 11 | 269 | 3.2 | 14.5 | 0.00 | 0.00 | 0.00 | 89 | 1021.6 |
| 20260507110031 | 11 | 311 | 1.6 | 16.1 | 0.00 | 0.00 | 0.00 | 88 | 1021.5 |
| 20260507104531 | 11 | 284 | 3.2 | 11.3 | 0.00 | 0.00 | 0.00 | 87 | 1021.6 |
| 20260507103032 | 11 | 255 | 4.8 | 14.5 | 0.00 | 0.00 | 0.00 | 86 | 1021.9 |
| 20260507101529 | 11 | 247 | 3.2 | 20.9 | 0.00 | 0.00 | 0.00 | 85 | 1022.1 |
| 20260507100036 | 11 | 244 | 4.8 | 19.3 | 0.00 | 0.00 | 0.00 | 83 | 1022.2 |
| 20260507094528 | 11 | 249 | 6.4 | 19.3 | 0.00 | 0.00 | 0.00 | 83 | 1022.2 |
| 20260507093030 | 11 | 257 | 4.8 | 11.3 | 0.00 | 0.00 | 0.00 | 83 | 1021.8 |
| 20260507091528 | 10 | 267 | 3.2 | 9.7 | 0.00 | 0.00 | 0.00 | 85 | 1022.1 |
| 20260507090028 | 10 | 281 | 3.2 | 9.7 | 0.00 | 0.00 | 0.00 | 87 | 1022.0 |
| 20260507084528 | 10 | 260 | 3.2 | 8.0 | 0.00 | 0.00 | 0.00 | 88 | 1021.9 |
| 20260507083027 | 10 | 286 | 0.0 | 3.2 | 0.00 | 0.00 | 0.00 | 88 | 1021.8 |
| 20260507081533 | 10 | 261 | 0.0 | 3.2 | 0.00 | 0.00 | 0.00 | 87 | 1022.0 |
| 20260507080027 | 10 | 232 | 0.0 | 6.4 | 0.00 | 0.00 | 0.00 | 86 | 1021.7 |
| 20260507074532 | 10 | 199 | 1.6 | 8.0 | 0.00 | 0.00 | 0.00 | 85 | 1021.8 |
| 20260507073026 | 10 | 240 | 1.6 | 6.4 | 0.00 | 0.00 | 0.00 | 85 | 1021.7 |
| 20260507071532 | 10 | 273 | 1.6 | 12.9 | 0.00 | 0.00 | 0.00 | 84 | 1021.7 |
| 20260507070026 | 10 | 286 | 3.2 | 6.4 | 0.00 | 0.00 | 0.00 | 84 | 1021.5 |
| 20260507064527 | 10 | 258 | 1.6 | 6.4 | 0.00 | 0.00 | 0.00 | 83 | 1021.6 |
| 20260507063025 | 10 | 246 | 3.2 | 12.9 | 0.00 | 0.00 | 0.00 | 82 | 1021.7 |
| 20260507061532 | 10 | 265 | 0.0 | 8.0 | 0.00 | 0.00 | 0.00 | 82 | 1021.8 |
| 20260507060024 | 11 | 242 | 1.6 | 6.4 | 0.00 | 0.00 | 0.00 | 80 | 1021.9 |